Yuma MCAS, AZ

7:55 PM MST on December 07, 2019 (GMT -0700)
Yuma Marine Corps Air Station

Weather History for KNYL - November, 2019

Change the Weather History Date:

Sunday, November 17, 2019

  Actual Average Record
Temperature  
Mean Temperature 74 °F 65 °F  
Max Temperature 89 °F 77 °F 88 °F (1949)
Min Temperature 58 °F 53 °F 30 °F (1958)
Degree Days  
Heating Degree Days 0 2  
Month to date heating degree days 0 17  
Since 1 July heating degree days 16 19  
Cooling Degree Days 9 2  
Month to date cooling degree days 119 73  
Year to date cooling degree days 4470 4635  
Growing Degree Days 24 (Base 50)    
Moisture  
Dew Point 30 °F    
Average Humidity 26    
Maximum Humidity 39    
Minimum Humidity 12    
Precipitation  
Precipitation 0.00 in 0.01 in 0.23 in (1982)
Month to date precipitation 0.00 0.10  
Year to date precipitation 1.49 2.93  
Sea Level Pressure  
Sea Level Pressure 29.94 in    
Wind  
Wind Speed 7 mph (NNE)    
Max Wind Speed 15 mph    
Max Gust Speed 19 mph    
Visibility 10 miles    
Events      
T = Trace of Precipitation, MM = Missing Value Source: NWS Daily Summary

Daily Weather History Graph

Daily Weather History Graph

Search for Another Location

Airport or City:

Astronomy

Nov. 17, 2019 Rise Set
Actual Time 7:10 AM MST 5:36 PM MST
Civil Twilight 6:43 AM MST 6:02 PM MST
Nautical Twilight 6:14 AM MST 6:32 PM MST
Astronomical Twilight 5:44 AM MST 7:01 PM MST
Moon 10:21 PM MST (11/17) 11:54 AM MST (11/17)
Length of Visible Light 11h 18m
Length of Day
10h 26m
Waning Gibbous, 73% of the Moon is Illuminated
Nov 17
Waning Gibbous
Nov 19
Last Quarter
Nov 26
New
Dec 3
First Quarter
Dec 11
Full

Hourly Weather History & Observations

Time (MST) Temp. Dew Point Humidity Pressure Visibility Wind Dir Wind Speed Gust Speed Precip Events Conditions
12:57 AM 63.0 °F 35.1 °F 35% 29.94 in 10.0 mi NE 3.5 mph - N/A   Clear
1:57 AM 60.1 °F 35.1 °F 39% 29.93 in 10.0 mi North 3.5 mph - N/A   Clear
2:57 AM 64.0 °F 32.0 °F 30% 29.93 in 10.0 mi NNE 3.5 mph - N/A   Clear
3:57 AM 61.0 °F 32.0 °F 34% 29.94 in 10.0 mi Calm Calm - N/A   Clear
4:57 AM 61.0 °F 30.9 °F 32% 29.94 in 10.0 mi North 5.8 mph - N/A   Clear
5:57 AM 62.1 °F 30.0 °F 30% 29.94 in 10.0 mi NNE 6.9 mph - N/A   Clear
6:57 AM 62.1 °F 30.0 °F 30% 29.96 in 10.0 mi NNE 4.6 mph - N/A   Clear
7:57 AM 64.0 °F 28.9 °F 27% 29.97 in 10.0 mi NE 15.0 mph - N/A   Clear
8:57 AM 66.9 °F 30.0 °F 25% 29.99 in 10.0 mi NE 12.7 mph - N/A   Clear
9:57 AM 73.0 °F 32.0 °F 22% 30.00 in 10.0 mi NE 10.4 mph - N/A   Clear
10:57 AM 78.1 °F 32.0 °F 19% 30.00 in 10.0 mi NE 6.9 mph - N/A   Clear
11:57 AM 82.0 °F 30.0 °F 15% 29.99 in 10.0 mi NNE 11.5 mph - N/A   Clear
12:57 PM 84.9 °F 28.0 °F 13% 29.95 in 10.0 mi NE 10.4 mph - N/A   Clear
1:57 PM 86.0 °F 30.9 °F 14% 29.92 in 10.0 mi NE 6.9 mph - N/A   Clear
2:57 PM 88.0 °F 28.9 °F 12% 29.91 in 10.0 mi NE 6.9 mph - N/A   Clear
3:57 PM 88.0 °F 28.0 °F 12% 29.90 in 10.0 mi Variable 3.5 mph - N/A   Clear
4:57 PM 84.9 °F 28.9 °F 13% 29.90 in 10.0 mi North 9.2 mph - N/A   Clear
5:57 PM 81.0 °F 28.0 °F 14% 29.91 in 10.0 mi North 8.1 mph - N/A   Clear
6:57 PM 77.0 °F 28.9 °F 17% 29.92 in 10.0 mi North 4.6 mph - N/A   Clear
7:57 PM 73.0 °F 28.9 °F 20% 29.94 in 10.0 mi NNE 4.6 mph - N/A   Clear
8:57 PM 70.0 °F 30.0 °F 23% 29.94 in 10.0 mi North 6.9 mph - N/A   Clear
9:57 PM 71.1 °F 28.9 °F 21% 29.94 in 10.0 mi NNE 8.1 mph - N/A   Clear
10:57 PM 68.0 °F 30.0 °F 24% 29.94 in 10.0 mi North 4.6 mph - N/A   Clear
11:57 PM 68.0 °F 28.9 °F 23% 29.93 in 10.0 mi NNE 5.8 mph - N/A   Clear